Regional Weather Roundup
Issued by NWS Goodland, KS

Home | Current Version | Previous Version | Text Only | Print | Product List | Glossary On
Versions: 1 2 3 4 5 6 7 8 9 10 11 12 13 14 15 16 17 18 19 20 21 22 23 24 25 26 27 28 29 30 31 32 33 34 35 36 37 38 39 40 41 42 43 44 45 46 47 48 49 50
000
ASUS43 KGLD 211908
RWRGLD

GOODLAND FORECAST AREA HOURLY WEATHER ROUNDUP
NATIONAL WEATHER SERVICE GOODLAND KS
1200 PM MST SAT JAN 21 2017

...OFFICIAL OBSERVATIONS...

CITY           SKY/WX    TMP DP  RH WIND       PRES   REMARKS
GOODLAND KS    CLOUDY    46  35  65 E9        29.39F
HILL CITY KS   SUNNY     53  37  54 NE3       29.42F
IMPERIAL NEB   SUNNY     44  27  51 CALM      29.42F
MCCOOK NEB     SUNNY     46  34  62 VRB3      29.43F
AKRON CO       SUNNY     41  25  53 SE13      29.39F
BURLINGTON CO  CLOUDY    42  33  70 SE12      29.38F
LIMON CO       SUNNY     39  26  59 SE14      29.37F
$$

...UNOFFICIAL OBSERVATIONS...

CITY           SKY/WX    TMP DP  RH WIND       PRES   REMARKS
LENORA KS        N/A     50  32  50 CALM        N/A
NORTON KS      SUNNY     48  32  53 CALM      29.43F
SHARON SPRINGS   N/A     47  40  77 NE10        N/A
TRENTON NEB      N/A     48  32  54 CALM        N/A
KIT CARSON CO    N/A     42  34  73 MISG        N/A
YUMA CO        FAIR      41  27  56 E9        29.40F
$$




USA.gov is the U.S. government's official web portal to all federal, state and local government web resources and services.